Temperature
29 29 29 29 29 29 29 29 29 30 30 30 29 28 27 25 24 24 23 22 21 20 20 19 19 18 18 18 18 18 17 17 17 17 17 17 16 16 16 16 16 16 16 16
27 28 29 28 29 29 29 29 29 29 29 29 28 27 26 25 24 24 23 22 21 20 20 19 19 18 18 18 18 18 17 17 17 17 16 16 16 16 16 16 16 15 15 15
27 28 27 27 28 29 29 29 29 29 29 28 27 26 25 24 24 23 23 22 21 20 19 19 19 19 18 18 18 18 17 17 17 16 16 16 16 16 16 16 15 15 15 15
27 26 26 28 28 28 28 28 28 28 27 27 26 24 24 23 23 23 22 22 21 20 19 19 19 19 18 18 18 17 17 17 16 16 16 16 16 15 15 15 15 15 15 14
27 26 27 27 26 27 27 27 27 27 26 25 24 24 24 22 22 22 21 21 20 20 19 19 19 18 18 18 17 17 17 16 16 16 16 15 15 15 15 15 15 14 14 14
26 26 26 27 26 25 26 26 26 25 25 25 24 27 25 21 21 20 20 20 20 19 19 18 18 18 18 17 17 16 16 16 16 16 15 15 15 15 14 14 14 14 14 14
25 25 27 25 25 25 25 25 24 23 23 23 24 23 21 19 19 19 19 19 19 18 18 18 18 18 17 17 16 16 16 16 16 15 15 15 14 14 14 14 14 13 13 13
25 25 25 23 24 25 23 21 21 22 22 21 20 19 19 18 18 18 18 18 18 18 18 17 17 17 17 16 16 16 15 15 15 15 14 14 14 14 14 13 13 13 12 12
24 24 21 20 21 20 20 20 20 20 20 20 19 19 18 17 17 17 17 17 17 17 17 17 17 16 16 16 16 15 15 15 15 14 14 14 13 13 13 13 12 12 12 11
21 21 21 20 19 19 19 19 19 19 19 19 19 18 17 17 16 16 16 16 16 16 16 16 16 16 16 15 15 15 15 14 14 13 13 13 13 12 12 12 12 11 11 11
20 20 20 20 19 18 18 18 18 18 18 18 18 17 17 16 16 15 15 15 15 15 15 15 15 15 15 15 14 14 14 13 13 13 12 12 12 11 11 11 11 11 11 11
21 20 20 19 18 17 17 17 17 17 17 17 17 16 16 16 15 15 15 15 15 15 15 15 14 14 14 14 14 14 13 13 12 12 12 12 11 11 11 10 10 10 10 10
18 18 17 17 17 16 16 16 16 16 16 16 16 15 15 15 15 15 14 14 14 14 14 14 14 14 13 13 13 13 13 12 12 12 11 11 11 10 10 10 10 9 9 9
16 16 16 17 16 16 16 15 15 15 15 15 15 14 14 14 14 14 14 14 14 13 13 13 13 13 13 13 12 12 12 12 12 11 11 11 10 10 10 9 9 9 8 8
16 16 16 16 15 15 15 15 15 15 14 14 14 14 14 14 13 13 13 13 13 13 13 12 12 12 12 12 12 12 11 11 11 11 10 10 10 9 9 9 9 8 8 7
15 15 15 15 15 15 15 15 15 14 14 13 13 13 13 13 13 13 13 13 13 12 12 12 12 12 11 11 11 11 11 11 10 10 10 9 9 9 9 8 8 8 8 7
15 15 15 15 15 14 14 14 14 13 13 13 13 13 13 12 12 12 12 12 12 12 11 11 11 11 11 11 11 10 10 10 10 9 9 9 9 9 9 8 8 8 8 7
14 14 14 14 14 14 13 13 13 12 12 12 12 12 12 12 11 11 11 11 11 11 11 11 11 10 10 10 10 10 10 9 9 9 9 9 9 8 8 8 8 8 7 7
13 13 13 13 13 13 12 12 12 12 12 11 11 11 11 11 11 11 10 10 10 10 10 10 10 10 10 10 10 9 9 9 9 9 8 8 8 8 8 8 8 8 8 7
12 12 12 12 12 12 12 11 11 11 11 11 11 10 10 10 10 10 10 10 9 9 9 9 9 9 9 9 9 9 9 9 9 8 8 8 8 8 8 8 8 8 8 7
11 11 11 11 11 11 11 11 11 10 10 10 10 10 10 10 10 10 10 9 9 9 9 9 9 9 9 9 9 9 9 9 8 8 8 8 8 8 8 8 8 8 8 8
10 10 10 10 10 10 10 10 10 10 10 10 10 10 9 9 9 9 9 9 9 9 9 9 8 8 8 9 8 8 8 8 8 8 8 8 8 8 8 8 8 8 8 8
9 9 9 9 9 9 9 9 9 9 9 9 9 9 9 9 9 9 9 8 8 8 9 8 8 8 8 8 8 8 8 8 8 8 8 8 8 8 8 8 8 8 8 8
9 9 9 9 9 9 9 9 9 9 9 9 9 9 9 9 9 8 8 8 8 8 8 8 8 8 8 8 8 8 8 8 9 9 9 9 9 8 8 8 8 8 8 8
9 8 8 8 8 8 8 8 8 8 8 8 8 8 8 8 8 8 8 8 8 8 8 8 8 8 8 8 8 8 8 8 9 9 9 9 9 9 8 8 8 8 8 8
8 8 8 8 8 8 9 9 9 9 9 8 8 8 8 8 8 8 8 8 8 8 8 8 8 8 8 8 8 8 9 8 8 8 8 8 8 8 8 8 8 8 8 8
8 8 8 8 8 9 9 9 9 9 9 8 8 8 8 8 8 8 8 8 8 8 8 8 8 8 8 8 8 8 9 9 9 9 9 9 8 8 8 8 8 8 8 8
Wind_Speed
9 4 8 12 13 14 15 13 11 8 8 4 3 4 5 6 8 9 9 9 10 9 9 9 8 8 7 7 7 6 6 6 5 5 4 4 4 4 3 3 3 2 2 2
10 8 8 9 11 12 13 11 11 8 6 1 0 3 5 6 8 9 9 9 10 9 9 9 9 9 8 8 7 7 6 6 5 5 5 5 5 5 4 3 3 3 3 3
11 10 10 12 11 11 10 8 9 9 4 2 2 3 4 6 7 8 8 9 9 9 9 9 9 9 9 9 8 8 7 6 6 6 6 6 5 5 5 5 5 4 4 4
9 9 14 6 4 7 8 7 6 5 3 2 2 2 2 3 5 6 7 8 8 8 8 8 8 9 9 9 9 8 7 7 6 6 6 6 6 6 6 5 5 5 5 5
9 13 11 5 4 6 8 7 3 4 2 1 2 3 4 2 3 4 5 6 7 7 8 8 8 9 9 9 9 8 8 7 7 7 7 7 6 6 6 6 6 6 6 6
10 12 12 6 5 3 5 7 1 2 2 2 4 5 3 3 3 4 4 5 6 7 8 8 8 9 9 9 9 8 8 7 7 7 7 7 7 6 6 6 7 7 7 6
12 11 7 3 3 5 8 2 3 2 0 2 2 2 3 4 4 5 5 6 7 7 7 7 8 9 9 9 8 8 8 8 8 7 7 7 7 6 6 7 7 7 7 7
11 12 7 4 3 3 2 4 3 2 2 2 3 5 5 5 5 6 6 6 6 6 6 6 7 8 8 8 8 8 8 8 8 7 7 7 8 7 7 7 8 7 7 6
4 2 4 3 2 3 3 2 2 3 3 2 3 4 5 5 5 6 6 5 5 6 7 6 6 7 8 8 8 9 9 8 8 7 6 7 7 7 6 6 6 6 6 5
2 1 1 2 2 3 3 3 3 3 2 2 3 4 5 5 5 5 5 5 5 7 7 6 6 6 7 8 8 9 9 9 8 8 7 6 5 5 5 5 5 5 6 6
4 2 1 1 3 3 3 3 3 3 3 2 3 4 5 5 5 5 5 5 5 6 6 6 6 6 6 7 9 9 9 8 8 8 8 7 6 5 4 4 3 4 5 6
4 1 2 1 3 3 3 3 3 3 3 3 3 4 5 5 5 5 5 5 6 6 7 6 6 6 6 7 8 9 9 8 7 7 7 7 8 8 13 10 11 10 8 6
3 3 3 2 2 2 2 2 3 3 3 3 4 4 5 5 5 5 5 5 6 6 6 6 6 6 6 6 8 8 8 8 7 7 7 7 7 7 7 8 12 12 10 10
2 3 3 2 1 1 1 2 3 4 4 4 4 5 6 6 5 5 5 5 6 6 6 6 7 6 6 6 7 8 8 8 7 7 7 7 7 7 7 8 7 6 8 9
3 4 4 2 1 1 1 3 3 4 4 4 4 5 6 6 6 6 6 6 7 7 7 7 7 6 5 6 7 8 7 6 6 6 6 7 7 7 7 8 7 7 7 6
3 3 3 4 3 2 2 3 3 3 4 4 4 4 5 6 7 7 6 6 7 7 7 7 7 6 6 7 8 7 7 9 8 7 7 7 7 7 7 7 7 7 6 7
5 4 4 4 4 3 2 2 2 3 3 4 5 5 6 7 8 7 7 6 7 7 7 7 7 7 7 7 7 6 7 8 9 7 7 7 7 7 7 7 6 6 6 6
5 5 4 4 4 3 3 3 3 3 3 4 5 6 7 7 7 7 7 8 8 8 7 7 7 8 8 7 6 7 7 7 7 7 7 7 6 7 7 6 7 7 7 7
4 3 2 2 3 4 4 4 4 4 5 5 6 6 7 7 7 7 8 8 8 8 6 7 8 8 9 8 7 6 7 8 7 7 7 7 6 6 6 6 6 6 6 7
2 2 3 3 4 4 4 5 6 6 5 6 7 7 7 7 8 8 8 7 6 6 7 7 8 8 8 8 6 7 7 7 7 7 7 6 6 6 5 5 6 6 6 6
4 4 5 5 5 5 5 5 6 6 6 6 7 7 7 7 8 8 8 7 7 7 8 7 6 6 7 6 6 6 7 6 6 6 6 6 6 5 5 5 5 5 5 5
4 5 6 6 7 6 6 6 7 7 7 7 8 8 9 9 8 8 8 6 7 5 6 6 6 7 6 5 6 6 6 6 6 5 5 5 5 5 5 5 4 4 4 4
5 6 6 7 8 8 7 7 7 7 8 8 8 8 8 7 6 7 7 6 7 5 6 6 7 6 3 4 5 6 6 6 5 5 5 4 4 4 4 5 4 4 4 4
6 7 7 8 8 9 8 8 8 8 9 8 8 8 8 7 7 7 7 8 7 7 7 8 7 4 4 4 5 5 5 4 4 4 4 3 3 3 4 4 4 4 4 5
7 8 8 8 8 7 8 9 10 9 9 8 9 8 6 6 7 8 8 9 8 7 8 7 5 3 4 4 5 4 4 3 2 2 2 2 3 3 3 3 3 3 4 4
7 7 7 7 7 7 7 7 7 7 8 8 7 7 7 8 9 8 8 9 9 7 7 7 6 5 4 4 4 3 2 3 3 2 2 2 2 2 2 3 4 4 4 4
9 8 7 8 7 7 7 7 8 8 8 8 8 8 8 8 8 8 8 8 7 6 5 5 5 4 3 3 3 2 2 2 1 1 2 2 2 2 3 3 3 3 4 5
Wind_Direction
243 232 211 212 210 208 221 240 249 247 251 238 215 207 191 179 173 172 171 171 172 171 168 168 166 166 162 159 158 155 151 153 155 158 158 157 155 151 148 148 147 135 133 131
220 215 217 220 214 212 221 232 243 250 243 231 175 171 176 181 180 180 178 176 174 173 173 174 172 171 165 163 161 156 155 156 154 151 147 143 141 139 133 128 124 116 118 122
217 206 214 221 216 215 216 223 238 242 245 220 197 181 185 185 187 185 179 176 175 176 177 177 175 171 168 164 162 160 155 155 152 144 138 133 133 130 125 118 113 110 111 111
219 201 224 215 190 220 221 222 236 259 265 255 230 189 183 182 184 182 177 173 172 170 168 168 167 165 162 159 161 159 152 149 147 142 134 131 131 128 123 118 113 108 103 100
219 218 221 190 188 208 215 216 223 245 240 206 140 168 144 121 154 163 166 164 163 163 158 154 155 157 158 159 159 158 154 150 147 145 140 137 135 128 122 120 116 112 107 101
222 231 228 198 157 190 225 216 186 256 233 204 199 218 145 102 116 128 136 143 145 143 141 143 148 152 155 158 157 156 151 145 142 143 141 138 135 130 125 121 117 113 101 97
223 229 229 94 142 191 220 207 34 16 289 217 226 352 90 103 103 112 121 127 131 133 134 137 145 148 149 149 148 145 141 137 133 137 137 134 130 126 125 121 114 109 104 97
224 230 217 76 175 211 16 21 23 28 31 56 73 85 101 106 108 112 115 121 127 127 124 129 140 143 142 140 137 137 136 132 130 135 136 133 129 126 127 127 123 117 112 104
236 231 67 55 37 25 7 4 18 18 25 80 106 103 105 105 103 104 107 112 120 123 118 119 133 142 142 139 139 136 134 132 130 130 129 131 133 136 137 137 135 132 129 123
233 174 60 58 48 43 33 19 10 18 35 100 114 111 111 107 102 104 106 115 121 121 119 117 121 129 135 136 137 136 136 135 134 131 126 121 125 132 136 140 141 138 134 129
232 234 240 101 52 38 32 31 38 46 55 86 117 120 117 113 112 111 110 112 119 122 123 122 121 121 129 138 141 138 135 133 133 130 124 113 95 69 92 84 100 134 139 141
250 245 293 351 11 9 13 27 39 54 67 85 110 118 121 118 115 116 113 111 111 114 117 118 120 121 127 140 143 142 140 139 138 136 132 130 119 94 58 62 69 68 62 86
289 309 314 310 324 341 2 30 42 58 85 99 103 116 118 114 111 112 112 114 112 112 113 115 117 119 127 137 143 144 143 141 139 139 139 138 134 130 118 82 69 67 72 80
274 271 258 258 279 16 56 68 74 76 84 98 106 109 111 111 110 110 108 108 109 109 109 111 113 113 120 129 134 138 138 132 138 141 140 137 135 134 133 131 123 105 84 90
263 259 250 243 202 158 130 121 109 97 93 97 109 116 120 121 119 112 106 107 108 106 104 106 105 104 110 121 126 131 132 133 132 132 133 132 133 133 132 131 129 128 124 115
278 259 230 209 200 181 163 146 130 115 109 108 109 114 118 118 118 116 113 114 115 110 108 107 106 106 112 119 124 124 119 115 125 130 130 133 136 137 136 135 135 137 141 142
263 248 229 220 208 186 164 144 134 130 122 113 114 121 127 126 124 118 111 107 106 105 106 109 109 111 114 119 123 123 123 126 131 131 132 134 136 138 140 144 147 146 147 142
260 260 254 240 214 182 151 135 128 124 119 113 122 128 129 130 126 119 116 112 106 100 97 103 107 111 110 110 113 119 124 129 130 126 128 131 135 141 148 152 152 149 143 145
238 233 233 205 174 158 143 133 128 123 119 121 122 122 122 117 118 121 123 120 116 110 102 104 111 114 111 109 112 118 123 125 125 126 128 132 144 147 149 147 147 150 149 153
186 158 144 136 141 142 138 131 128 125 122 126 124 120 119 118 120 119 114 106 99 104 115 118 121 114 117 122 127 125 127 131 131 132 136 143 145 144 145 148 151 154 158 163
133 125 128 126 117 118 124 128 128 129 131 133 132 129 125 122 122 120 117 109 103 112 120 124 121 119 120 125 138 129 131 130 132 135 140 142 144 147 149 155 160 165 168 170
125 126 127 124 118 115 116 119 122 125 128 128 127 126 124 120 117 112 104 107 116 125 129 124 117 108 118 138 135 129 129 130 133 137 141 144 149 153 158 165 170 171 172 176
122 124 126 123 119 116 116 118 123 124 124 124 123 124 120 115 117 117 112 111 119 122 117 108 106 114 148 157 135 134 133 135 140 145 149 155 161 165 167 170 173 173 176 184
116 120 119 118 119 118 116 115 112 113 115 114 113 116 118 117 112 106 108 109 104 112 107 105 115 140 195 141 129 126 125 132 146 155 159 165 167 169 175 179 180 185 193 202
120 119 118 118 117 117 117 117 116 117 115 111 112 114 111 108 112 114 117 120 126 127 119 121 138 179 161 127 128 128 135 137 144 153 159 168 181 182 186 193 198 206 216 223
115 115 115 115 117 122 124 122 118 116 114 113 110 109 109 112 116 121 124 129 130 132 129 134 143 171 141 130 128 129 132 139 159 187 189 199 197 198 207 219 225 230 233 237
113 113 115 114 113 113 114 113 114 113 113 115 114 113 116 120 122 124 128 131 134 134 132 138 142 142 134 131 131 139 152 156 169 193 199 205 212 220 222 233 248 250 252 251
Height
1481 1479 1480 1483 1486 1489 1492 1489 1492 1490 1489 1488 1491 1494 1498 1502 1505 1508 1511 1513 1515 1518 1520 1521 1523 1525 1527 1528 1530 1531 1532 1533 1534 1534 1535 1536 1537 1539 1540 1542 1543 1544 1544 1545
1486 1482 1482 1485 1483 1485 1487 1487 1487 1487 1488 1488 1492 1495 1498 1501 1503 1506 1509 1511 1514 1516 1518 1520 1521 1523 1525 1527 1529 1530 1531 1532 1533 1533 1534 1535 1536 1538 1539 1540 1541 1542 1543 1544
1487 1483 1486 1491 1483 1483 1484 1484 1486 1487 1487 1489 1492 1495 1497 1500 1502 1504 1507 1509 1512 1514 1516 1518 1520 1521 1523 1525 1527 1529 1530 1531 1532 1532 1533 1534 1535 1537 1538 1539 1540 1541 1542 1543
1483 1491 1502 1483 1479 1480 1483 1484 1485 1486 1488 1490 1493 1496 1498 1499 1501 1503 1506 1508 1510 1512 1514 1516 1517 1519 1521 1523 1526 1527 1529 1530 1531 1532 1533 1534 1535 1536 1537 1538 1540 1540 1541 1542
1484 1489 1486 1484 1482 1482 1484 1485 1486 1487 1489 1491 1494 1495 1497 1499 1501 1503 1505 1507 1509 1511 1512 1513 1515 1517 1519 1521 1524 1526 1527 1529 1530 1531 1532 1533 1534 1535 1537 1538 1539 1540 1541 1541
1485 1490 1491 1480 1480 1484 1486 1488 1487 1488 1490 1491 1493 1490 1494 1499 1501 1502 1504 1506 1507 1509 1511 1512 1513 1515 1518 1520 1522 1524 1526 1527 1529 1531 1532 1533 1534 1535 1537 1538 1539 1540 1540 1541
1484 1486 1479 1480 1483 1486 1492 1490 1490 1491 1492 1493 1493 1494 1498 1499 1500 1501 1503 1505 1506 1508 1509 1510 1512 1514 1516 1518 1521 1523 1525 1526 1528 1530 1532 1533 1534 1535 1536 1537 1538 1539 1539 1540
1482 1486 1485 1486 1485 1486 1490 1492 1492 1493 1494 1495 1496 1496 1497 1499 1500 1501 1502 1504 1505 1507 1508 1510 1511 1513 1515 1517 1519 1522 1524 1525 1527 1529 1531 1532 1533 1534 1535 1536 1537 1538 1539 1540
1480 1484 1489 1490 1490 1493 1493 1494 1494 1494 1495 1496 1496 1497 1498 1499 1500 1501 1503 1504 1505 1506 1507 1509 1511 1512 1514 1516 1518 1520 1522 1524 1526 1528 1529 1531 1532 1533 1534 1535 1537 1538 1539 1539
1486 1486 1489 1491 1492 1493 1494 1495 1495 1495 1496 1496 1497 1498 1499 1500 1500 1502 1503 1504 1505 1506 1506 1508 1509 1511 1513 1515 1517 1519 1521 1523 1524 1526 1528 1529 1531 1533 1534 1535 1536 1537 1538 1539
1488 1489 1490 1492 1494 1495 1495 1495 1495 1495 1496 1497 1497 1498 1499 1500 1501 1502 1503 1504 1504 1505 1506 1507 1508 1510 1512 1514 1516 1517 1519 1521 1523 1525 1527 1528 1530 1531 1533 1534 1536 1537 1538 1539
1485 1490 1491 1493 1495 1495 1495 1495 1495 1495 1496 1497 1498 1498 1499 1500 1501 1502 1503 1504 1504 1505 1506 1507 1508 1509 1511 1513 1514 1517 1518 1520 1522 1524 1526 1528 1529 1531 1532 1534 1535 1536 1537 1539
1491 1492 1493 1494 1495 1495 1495 1495 1495 1495 1496 1497 1497 1498 1499 1500 1501 1502 1503 1504 1504 1505 1506 1507 1508 1509 1511 1512 1514 1516 1518 1519 1521 1524 1526 1527 1529 1530 1532 1534 1535 1536 1538 1539
1492 1493 1493 1493 1494 1495 1495 1495 1495 1495 1496 1497 1497 1498 1499 1499 1501 1502 1503 1504 1505 1506 1506 1507 1508 1510 1511 1512 1514 1515 1517 1519 1521 1523 1525 1527 1529 1531 1532 1534 1535 1537 1539 1540
1491 1492 1492 1493 1493 1494 1494 1494 1495 1495 1496 1496 1497 1498 1499 1500 1501 1502 1503 1504 1505 1506 1507 1508 1509 1510 1511 1512 1514 1515 1516 1518 1520 1522 1524 1526 1529 1531 1533 1535 1536 1538 1539 1541
1490 1490 1490 1491 1492 1493 1494 1494 1494 1495 1496 1496 1497 1498 1499 1500 1501 1502 1503 1505 1506 1506 1507 1508 1509 1510 1511 1513 1514 1516 1517 1518 1520 1522 1524 1527 1529 1531 1533 1535 1537 1538 1540 1541
1488 1488 1489 1490 1491 1492 1493 1493 1494 1495 1495 1496 1496 1498 1499 1500 1501 1502 1503 1505 1506 1507 1508 1509 1510 1511 1512 1513 1515 1516 1517 1519 1521 1523 1525 1527 1530 1532 1534 1536 1537 1539 1541 1542
1487 1487 1488 1489 1489 1490 1491 1492 1493 1494 1495 1495 1496 1497 1498 1500 1501 1502 1503 1504 1506 1507 1508 1509 1510 1511 1512 1514 1515 1517 1518 1520 1522 1525 1526 1528 1531 1533 1535 1536 1538 1539 1541 1542
1484 1485 1486 1487 1488 1489 1490 1491 1492 1493 1494 1495 1496 1497 1498 1499 1501 1502 1504 1505 1507 1508 1509 1510 1511 1512 1513 1514 1516 1518 1520 1522 1524 1526 1528 1529 1531 1534 1535 1537 1538 1540 1541 1542
1483 1484 1485 1486 1487 1488 1489 1490 1491 1493 1494 1495 1496 1498 1499 1500 1502 1503 1505 1506 1508 1509 1510 1511 1513 1514 1515 1516 1518 1520 1522 1524 1526 1527 1529 1531 1533 1534 1536 1537 1538 1540 1541 1542
1482 1483 1484 1485 1486 1487 1489 1490 1491 1493 1494 1496 1497 1499 1500 1502 1503 1504 1506 1508 1509 1511 1512 1513 1515 1516 1517 1518 1520 1522 1524 1526 1527 1529 1530 1532 1533 1535 1536 1537 1539 1540 1540 1541
1481 1482 1483 1484 1485 1487 1489 1490 1492 1493 1495 1497 1498 1500 1501 1503 1504 1506 1507 1509 1510 1512 1514 1516 1517 1517 1519 1521 1523 1525 1526 1527 1529 1530 1532 1533 1534 1535 1536 1537 1538 1539 1540 1541
1481 1482 1484 1485 1486 1487 1489 1491 1493 1495 1496 1498 1500 1501 1503 1504 1506 1508 1509 1511 1512 1514 1516 1517 1518 1519 1521 1524 1525 1526 1528 1529 1530 1532 1533 1534 1535 1536 1537 1537 1538 1539 1540 1540
1482 1483 1485 1486 1488 1489 1491 1493 1495 1496 1498 1500 1502 1503 1505 1506 1508 1510 1511 1512 1514 1516 1517 1519 1520 1522 1524 1526 1527 1528 1530 1531 1532 1533 1534 1534 1535 1536 1537 1537 1538 1538 1539 1539
1483 1485 1486 1488 1489 1491 1493 1495 1497 1499 1500 1502 1504 1505 1507 1509 1510 1512 1513 1515 1517 1519 1520 1521 1523 1524 1526 1528 1529 1530 1531 1532 1533 1534 1534 1535 1535 1536 1536 1537 1537 1538 1538 1538
1485 1487 1489 1490 1492 1494 1495 1497 1499 1501 1503 1505 1506 1508 1509 1511 1513 1514 1516 1518 1520 1521 1523 1524 1525 1527 1529 1530 1530 1531 1532 1533 1533 1534 1534 1535 1535 1535 1536 1536 1536 1536 1536 1536
1488 1490 1492 1493 1495 1497 1498 1500 1502 1504 1506 1507 1509 1511 1513 1514 1516 1518 1519 1521 1523 1524 1525 1526 1528 1529 1530 1531 1531 1532 1533 1533 1534 1534 1534 1534 1534 1535 1534 1534 1535 1534 1534 1534